Location: Apollinopolis Magna
(24.9792°N, 32.8772°E)
Time: 12:17:51
(UTC+00:00)

Cosmos 2237 - Pass Details

Date: 02 March 2021
Orbit: 845 x 857 km, 70.8° (Epoch: 15 April)

Event Time Altitude Azimuth Distance (km) Brightness Sun altitude
Rises 16:30:38 0° 200° (SSW) 3,399 7.7 -9.7°
Reaches altitude 10° 16:33:05 10° 202° (SSW) 2,468 7.0 -10.3°
Maximum altitude 16:38:45 79° 288° (WNW) 870 4.4 -11.6°
Drops below altitude 10° 16:44:28 10° 15° (NNE) 2,485 6.5 -12.8°
Sets 16:46:56 0° 17° (NNE) 3,424 7.2 -13.4°
